Find Starlink 32647

NORAD ID: 62200 Int'l Des: 2024-229 Owner: SPXS Country: US Constellation: starlink operational
LEOCIRCULAR

現在のビュー

3D地球を読み込み中...

About Starlink 32647

Starlink 32647 (NORAD 62200) is a starlink constellation satellite (v2 mini) launched Dec 4, 2024 by SPXS of US. It operates in LEO, CIRCULAR orbit with a mass of 730.00 kg.

Starlink 32647について

説明を読み込み中...

次回通過

Passes for default location (London). Set your location on the main map for personalized predictions.

高度履歴

Loading altitude history...

軌道要素

1 62200U 24229J 26192.29213882 .00010257 00000-0 38169-3 0 9999
2 62200 43.0040 292.7776 0001983 285.8314 74.2319 15.27583874 89468
Epoch: Jul 11, 2026 • Age: 20 hours

現在のステータス

高度 491.2 km
遠地点 / 近地点 N/A
速度 7.62 km/s
衛星直下点 -32.35°S, 177.8°E
打ち上げ日 Dec 4, 2024
運用期間 1.5 years
タイプ internet

技術仕様

分類 Payload
質量 730.00 kg
乾燥質量 700.00 kg
総質量 730.00 kg
長さ 0.30 m
直径 4.10 m
スパン 29.00 m
形状 Box + pan
製造者 SPXS
バスタイプ Starlink V2M
フェーズステータス In Orbit
所有者/国 SPXS/US

Most Searched